sat.trackr.live / text

‹ back to catalog

STARLINK-30853

NORAD 58236 · 2023-171G

PAYLOAD ACTIVE UNKNOWN

§ Identity

Operator
Country
US
Launch date
2023-11-08
Launch site
AFETR
Launch vehicle
Mass (kg)
RCS (m²)

Purposes: comms

External: N2YO · Heavens-Above · Gunter

§ Orbital elements

Epoch: 2026-05-25T04:59:54.522816Z

Period
94.27 min
Inclination
42.9993°
Eccentricity
0.0001546
Mean motion
15.27580545 rev/d
Perigee alt
482.0 km
Apogee alt
484.1 km
Semi-major
6,861.2 km
B*
6.9138e-5
RAAN
213.3874°
Arg perigee
269.5385°
Mean anomaly
90.5289°
Rev number
14,143

§ Raw data

STARLINK-308531 58236U 23171G   26145.20826994  .00001641  00000+0  69138-4 0  99982 58236  42.9993 213.3874 0001546 269.5385  90.5289 15.27580545141432

JSON: /api/v1/satellites/58236 · /tle

For live sub-satellite position, see the globe view (requires WebGL).

§ Visibility from observer

Set your observer location to see the next 7 days of passes ≥ 10°. The values pass through the URL so the page stays shareable.

No JS? Fill the form by hand. The geolocation button needs JavaScript.